User: anonymous   Login
Location: Newark
(51.3318°N, 0.0053°E)
Time: 02:55:26
(UTC+00:00)
Language:

Sep Motor Cover - Orbit

View from above orbital plane
View from above orbital plane
View from above satellite
View from above satellite

Ground track
Ground track

The orbit data is extracted from the following two-line orbital elements,

1 22577U 93016E   22343.04286420  .00000188  00000-0  67060-4 0  9992
2 22577  71.0409 268.8851 0118747 332.1618 114.3721 14.42933405563453
Epoch (UTC): 09 December 2022 01:01:43
Eccentricity: 0.0118747
inclination: 71.0409°
perigee height: 664 km
apogee height: 833 km
right ascension of ascending node: 268.8851°
argument of perigee: 332.1618°
revolutions per day: 14.42933405
mean anomaly at epoch: 114.3721°
orbit number at epoch: 56345

The dashed part of the orbit path shows where the satellite is in the earth's shadow,  

DLR